Showing default

OPS 9344 (IDSCS 22), 3287

Orbit data source: Space-Track

OPS 9344 (IDSCS 22), 3287 is a payload satellite owned by SAMSO (US) in GEO that was launched on Thu, 13 Jun 1968 UTC via a TITAN IIIC launch vehicle from the Air Force Eastern Test Range (AFETR). Payload-class satellites include a variety of spacecraft equipped with specific instruments for various scientific and technological missions. These include communications satellites like Starlink; space stations such as the ISS; scientific satellites like the Hubble; Earth observation satellites from companies like Planet Labs, Umbra, and HawkEye 360; GPS; miniature CubeSats for education and research; and military/defense satellites.

Not visible in the next 10 days
Identifier
3287, 1968-050D
Orbit
GEO
Country
Flag of USUS
Related business
Manufacturer
Philco-Ford
Mission
Non-operational spacecraft
Bus & Motor
IDCSP, Unknown motor
Mass
45 kg wet, 45 kg dry
Launch date (UTC)
1968-06-13 (57 years ago)
Launch vehicle
TITAN IIIC
Launch site
Air Force Eastern Test Range (AFETR)
Object type
Payload
Rocket body
Debris
Shape & HBR
Unknown
Radar Cross Section
Medium (>0.1 m² and <1 m²)

Expand to show TLE details & history
Last TLE update: 20 hours ago

TLE from 20 hours ago
0 OPS 9344 (IDSCS 22)
1  3287U 68050D   25304.83543112 -.00000097  00000-0  00000+0 0  9996
2  3287   6.7165  54.3693 0026996 143.3818 191.9547  1.07640730224807
Epoch: 2025-10-31T20:03Z
TLE epoch observation values (Epoch: 2025-10-31T20:03:01.248Z)
Latitude
-2.79817°
Longitude
48.62855°
Altitude
33,946.15 km
Speed
3.14 km/s
True Right ascension
01h 59m 01s
True Declination
-2° 47' 43"
Sunlit
Object was in daylight at epoch
Visualization orbit readout
Latitude
Unknown
Longitude
Unknown
Altitude
Unknown
Speed
Unknown
Apparent Right ascension
Unknown
Apparent Declination
Unknown
Sunlit
N/A
Visualization observer readout
Local Sidereal Time
11:49:43
Azimuth
Unknown
Elevation
Unknown
Doppler factor
Unknown
Orbital elements
Apogee altitude
33,949.252 km
Perigee altitude
33,732.103 km
Semi-major axis
40,218.815 km
Eccentricity
0.0027
Inclination
6.7165°
RAAN
54.3693°
Arg. of periapsis
143.3818°
True anomaly
191.89083°
Mean anomaly
191.9547°
Eccentric anomaly
191.92275°
Mean motion
0.26909 °/min
Orbital period
1,337.84 mins
BSTAR
0
Loading maneuver chart data...
Computing Atmospheric mass density...
Loading historical data...
Loading historical data...
Loading historical data...
Loading historical data...
Loading historical data...
Loading historical data...
Loading historical data...

Documentation

Showing up to 5 results
|